CAPE
0 0 0 0 0 0 0 0 0 0 0 0 0 0 0 0 0 0 0 0 0 0 0 0 0 0 0 0 0 0 0 0 0 0 0 0 0 62 56 15 2 6 21 0
1 4 1 0 0 0 0 0 0 0 0 0 0 0 0 0 0 0 0 0 0 0 0 0 0 0 0 0 0 0 0 0 0 0 0 6 0 0 0 0 0 0 0 0
5 5 0 0 0 0 0 0 0 0 0 0 0 0 0 0 0 0 0 0 0 0 0 0 0 0 0 0 0 0 0 0 0 0 0 0 0 0 0 0 0 0 0 0
0 0 0 0 0 0 0 0 0 0 0 0 0 0 0 0 0 0 0 0 0 0 0 0 0 0 0 0 0 0 3 0 0 0 0 0 1 0 0 0 0 0 8 2
1 0 0 0 0 0 0 0 0 0 0 0 0 0 0 0 0 0 0 0 0 0 0 0 0 0 0 0 0 0 0 0 0 0 0 0 0 0 0 1 0 1 0 0
2 0 0 0 0 0 0 0 0 0 0 0 0 0 0 0 0 0 0 0 0 0 0 0 0 0 0 0 0 0 0 0 0 0 0 1 0 0 0 2 10 2 0 2
2 0 0 0 0 0 0 0 0 0 0 0 0 0 0 0 0 0 0 0 0 0 0 0 0 0 0 0 0 0 0 0 2 0 0 0 0 14 21 25 1 3 5 1
0 0 0 0 0 0 0 0 0 0 0 0 0 0 0 0 0 0 0 0 0 0 0 0 0 0 0 0 0 0 0 0 1 0 0 0 0 1 2 6 1 0 0 0
7 0 0 0 0 0 0 0 0 0 0 0 0 0 0 0 0 0 0 0 0 0 0 0 0 0 0 0 0 0 0 0 0 0 0 0 0 0 0 0 1 0 0 0
6 0 0 0 0 0 0 0 0 0 0 0 0 0 0 0 0 0 0 0 0 0 0 0 0 0 0 0 0 2 0 0 0 0 0 0 0 0 0 0 0 0 0 1
9 5 0 0 0 0 0 0 0 0 0 0 0 0 0 0 0 0 0 0 0 0 0 1 0 0 0 0 2 13 2 1 0 0 0 0 1 0 0 0 2 0 1 3
1 1 0 0 0 0 0 0 0 0 0 0 0 0 0 0 0 0 0 0 1 0 0 0 0 0 0 0 0 0 2 0 0 0 0 1 2 1 1 1 3 3 2 1
0 0 0 0 0 0 0 0 0 0 0 0 0 0 0 0 0 0 0 0 0 0 0 0 0 0 0 0 0 0 0 0 1 0 0 0 1 0 0 0 1 1 0 0
0 0 0 1 0 0 0 0 1 0 0 0 4 0 0 0 0 0 0 0 0 0 0 0 0 0 0 0 2 0 1 0 0 0 0 1 0 0 0 0 0 0 2 1
1 3 5 0 0 0 0 0 0 1 0 0 0 0 0 0 0 0 0 0 0 0 0 0 0 0 0 3 0 0 1 1 0 0 0 0 0 0 0 0 0 1 0 1
6 10 5 3 0 0 0 0 0 0 1 0 0 0 0 0 0 0 1 0 0 0 0 0 0 0 0 0 0 0 0 1 0 0 0 0 0 0 1 0 0 0 0 0
1 14 8 2 0 0 0 0 0 5 2 0 0 0 0 0 2 2 7 9 0 0 0 0 0 0 0 0 0 1 0 1 0 0 0 0 0 1 0 0 0 0 0 0
4 1 6 0 3 3 1 0 2 1 0 0 0 0 1 0 0 0 1 1 0 0 0 0 0 0 4 0 0 1 1 0 1 0 0 0 0 0 0 0 0 0 0 0
3 2 0 0 0 0 5 12 1 0 0 0 0 0 0 0 0 0 2 1 0 0 0 0 1 0 0 0 0 0 0 0 0 0 0 0 0 0 0 0 0 0 0 0
4 0 0 0 0 6 0 1 2 0 0 0 0 0 0 0 0 0 2 0 0 0 0 0 0 0 0 0 0 0 0 0 0 1 0 0 0 0 0 0 0 0 0 0
0 0 0 3 14 0 2 0 0 0 1 0 0 0 0 0 0 0 4 0 1 0 0 0 0 0 0 0 0 0 0 0 0 0 0 0 0 0 0 0 0 0 0 0
0 1 2 2 1 1 0 0 0 1 0 0 0 0 0 0 5 0 4 0 0 0 0 0 0 1 0 0 0 0 0 0 0 0 0 0 0 0 0 0 0 0 0 0
0 1 0 1 0 0 0 0 0 0 0 0 0 0 7 2 0 0 0 0 0 1 0 0 0 0 0 0 0 0 0 0 0 0 0 0 0 0 0 0 0 0 0 0
0 0 0 0 0 0 0 0 0 0 0 0 0 0 0 0 0 0 2 0 0 0 0 0 1 0 0 0 0 0 0 0 0 0 0 0 0 0 0 0 0 0 0 0
0 3 0 0 0 0 0 0 0 0 0 0 0 0 0 0 0 0 0 0 0 0 0 0 0 0 0 0 0 0 0 0 0 0 0 0 0 0 0 0 0 0 0 0
0 0 0 0 0 0 0 1 0 0 0 0 0 0 0 0 0 0 0 0 0 0 0 0 0 0 0 0 0 0 0 0 0 0 0 0 0 0 0 0 0 0 0 0
0 0 0 0 2 3 1 0 3 2 2 0 0 0 0 0 0 0 0 0 0 0 0 0 0 0 0 0 0 0 0 0 0 0 0 0 0 0 0 0 0 0 0 0
CIN
0 0 0 0 0 0 0 0 0 0 0 0 0 -32 0 0 0 0 0 0 0 0 0 0 0 0 0 0 0 0 0 0 0 0 0 0 0 -6 -14 -12 -5 -8 -2 -1
-1 -4 -4 0 0 0 0 0 0 0 0 0 0 0 0 0 0 0 0 0 0 0 0 0 0 0 0 0 0 0 0 0 0 0 0 -62 0 0 0 0 -1 -2 -0 0
-5 -4 0 0 0 0 0 0 0 0 0 0 0 0 0 0 0 0 0 0 0 0 0 0 0 0 0 0 0 0 0 0 0 0 0 0 0 0 0 0 0 -3 0 0
0 0 0 0 0 0 0 0 0 0 0 0 0 0 0 0 0 0 0 0 0 0 0 0 0 0 0 0 0 0 -12 0 0 0 0 0 -0 0 0 0 0 -1 -19 -16
-2 0 0 0 0 0 0 0 0 0 0 0 0 0 0 0 0 0 0 0 0 0 0 0 0 0 0 0 0 0 0 0 0 0 0 0 0 0 0 -2 -3 -15 0 0
-1 0 0 0 0 0 0 0 0 0 0 0 0 0 0 0 0 0 0 0 0 0 0 0 0 0 0 0 0 0 0 0 0 0 0 -5 0 0 0 -9 -1 -30 0 0
-0 0 0 0 0 0 0 0 0 0 0 0 0 0 0 0 0 0 0 0 0 0 0 0 0 0 0 0 0 0 0 0 -1 0 0 0 0 -87 -61 -39 0 0 0 0
0 0 0 0 0 0 0 0 0 0 0 0 0 0 0 0 0 0 0 0 0 0 0 0 0 0 0 0 0 0 0 0 -4 0 0 0 0 -22 -5 -43 0 -0 0 0
-0 0 0 0 0 0 0 0 0 0 0 0 0 0 0 0 0 0 -0 -18 0 0 0 0 0 0 -0 -0 0 -3 -5 -3 -1 0 0 0 0 0 0 0 0 0 0 0
-2 0 0 0 0 0 0 0 0 0 0 0 0 0 0 0 0 0 0 0 0 0 0 0 0 0 0 0 0 -15 0 -1 0 0 0 0 0 0 0 0 0 0 0 0
-3 -5 0 0 0 0 0 0 0 0 0 0 0 0 0 0 0 0 0 0 0 0 0 -2 0 0 0 0 -18 -9 -4 -3 -2 -4 0 0 0 0 0 0 0 0 0 0
-3 -1 -0 0 0 0 0 0 0 0 0 0 0 0 0 0 0 0 0 0 -4 0 0 0 0 0 0 0 0 0 -0 -0 0 0 0 0 0 0 0 0 0 0 0 0
0 0 -0 0 0 0 0 0 0 0 0 0 0 0 0 0 0 0 0 -1 0 0 0 0 0 0 0 0 -1 0 0 0 0 0 0 0 0 0 0 0 0 0 0 -0
-5 0 -2 -6 0 0 0 0 -11 -3 -0 0 -3 -1 0 0 0 0 0 0 0 0 0 -1 0 0 0 0 -1 0 0 0 0 0 0 0 0 0 0 0 0 0 -0 0
-16 -15 -10 0 0 0 0 0 -1 -6 -0 0 0 0 0 0 0 0 0 0 0 0 0 0 0 0 -1 -13 0 0 -0 -1 -0 0 0 0 0 0 0 0 0 0 0 0
-30 -9 -12 -16 0 0 0 0 0 0 -2 0 0 0 0 0 0 0 -2 0 0 0 0 0 0 0 -4 0 0 0 -0 -1 -1 0 0 0 0 0 0 0 0 0 0 0
-16 -11 -13 -10 0 -1 -0 -0 -0 -13 -13 0 0 0 0 0 -2 -3 -3 -2 -6 0 0 0 0 0 -1 -0 -0 0 0 -0 -0 0 0 0 0 0 0 0 0 0 0 -0
-26 -22 -20 0 -2 -2 -3 0 -10 -15 0 0 0 0 -0 0 0 0 -7 -4 0 0 0 0 0 0 -1 -4 0 0 0 -1 0 -0 0 0 0 0 0 -1 0 0 0 0
-15 -19 -10 0 0 -1 -2 -1 -1 -2 0 0 -0 0 0 0 0 0 -17 -14 0 0 0 0 -3 -3 -0 0 0 0 0 0 0 -0 0 0 0 0 0 0 0 0 0 0
-17 0 0 0 -1 -3 -1 -0 0 0 -0 -1 0 0 0 0 0 0 -12 0 0 -0 0 0 -1 0 0 0 0 0 0 0 0 0 0 0 0 0 0 0 0 0 0 0
0 0 0 -1 -1 -0 -0 -0 0 0 -0 0 0 0 0 -2 0 0 -14 -4 -6 -0 0 -0 -3 0 0 0 0 0 0 0 0 0 0 0 0 0 0 0 0 0 0 0
0 0 0 -0 -1 0 -0 0 0 -2 0 -3 0 0 0 0 -12 -6 -7 0 -3 0 -12 -2 0 0 0 0 0 0 0 0 0 0 0 0 0 0 0 0 0 0 0 0
0 -1 0 0 0 0 0 0 -0 0 0 0 -0 -3 -4 -7 -8 0 0 -1 0 -8 0 0 0 0 0 0 0 0 0 0 0 0 0 0 0 0 0 0 0 0 0 0
0 0 0 0 0 0 0 0 0 0 0 0 0 0 0 0 0 0 0 0 0 0 0 0 0 0 0 0 0 0 0 0 0 0 0 0 0 0 0 0 0 0 0 0
0 -1 -1 0 0 -0 0 0 -0 -1 0 0 0 0 0 -1 0 0 0 0 0 0 0 0 0 0 0 0 0 0 0 0 0 0 0 0 0 0 0 0 0 0 0 0
0 0 -0 0 -0 0 0 0 0 -2 0 0 0 0 -0 0 0 0 0 0 0 0 0 0 0 0 0 0 0 0 0 0 0 0 0 0 0 0 0 0 0 0 0 0
-0 -0 0 0 -0 -2 -3 0 -1 -10 0 0 0 0 0 0 0 0 -0 0 0 0 0 0 0 0 0 0 0 0 0 0 0 0 0 0 0 0 0 0 0 0 0 0
Wind_Speed
6 8 7 7 9 13 9 10 10 9 9 10 11 13 14 14 14 15 15 16 16 16 19 21 22 25 25 28 30 30 25 28 36 34 37 36 38 35 29 38 36 32 32 31
6 6 7 8 9 10 10 8 8 11 11 10 11 10 12 13 14 15 14 14 16 18 19 21 21 24 27 26 27 25 27 27 37 38 32 26 26 32 32 34 31 41 37 32
5 5 6 9 9 11 12 11 9 10 11 13 10 8 10 12 15 14 14 16 16 19 20 21 23 25 23 27 26 22 23 25 27 31 35 33 37 39 36 30 31 30 25 26
5 6 7 9 12 14 12 11 10 11 10 10 9 11 12 10 14 14 13 17 17 18 22 27 27 29 31 28 25 27 23 27 30 33 42 43 42 42 38 37 40 35 28 27
4 6 8 10 12 16 10 10 10 10 8 9 8 12 12 14 12 16 17 17 21 21 26 26 32 31 30 27 24 23 25 27 33 39 38 43 45 43 40 38 34 33 29 27
5 7 8 10 12 13 12 12 12 10 9 9 10 12 12 15 16 18 16 20 21 24 26 26 28 26 24 20 20 21 25 26 27 31 32 32 40 39 39 34 28 24 26 18
8 9 11 11 11 10 12 12 13 10 9 9 10 11 13 15 16 17 21 22 23 21 27 28 26 20 11 10 10 9 11 16 22 32 31 31 31 26 29 9 13 9 6 9
9 13 12 10 10 12 12 14 12 11 10 13 11 13 14 16 16 16 15 17 19 24 26 25 24 22 19 15 6 6 10 8 25 25 25 28 26 21 19 22 15 15 16 16
13 12 11 11 13 13 12 11 13 12 10 14 15 12 13 15 19 17 18 22 21 21 21 20 19 21 21 21 19 11 9 28 31 22 18 20 23 29 29 28 18 17 18 21
12 9 11 13 12 12 12 13 13 11 10 15 14 13 14 16 17 18 20 25 23 22 20 17 17 18 14 9 9 14 24 26 28 25 23 22 20 26 27 19 18 16 18 20
10 8 11 12 11 12 12 13 13 11 12 14 14 14 14 16 18 19 22 20 22 21 20 17 18 17 11 4 10 16 20 19 21 22 22 18 21 12 8 11 12 14 17 17
9 8 10 11 12 12 12 12 13 13 13 13 16 16 14 14 16 17 20 18 19 18 17 16 17 17 14 13 9 9 13 12 8 9 8 14 13 11 11 12 13 14 15 15
13 11 11 12 10 11 11 12 13 13 14 14 12 13 10 11 12 14 16 19 18 16 14 18 18 18 18 15 13 13 15 16 12 13 12 13 14 14 14 14 14 14 16 15
13 11 9 10 10 10 11 13 16 14 14 13 13 15 13 11 10 11 12 13 14 14 21 20 20 20 18 18 18 16 18 18 15 11 14 13 15 14 14 15 15 16 17 17
9 8 7 9 10 10 12 15 15 15 13 14 14 19 13 8 9 10 10 12 12 17 19 20 21 20 19 19 15 18 20 19 17 16 18 13 14 14 14 15 16 19 19 18
6 6 7 8 10 10 12 13 14 16 15 13 15 17 14 10 7 10 9 8 13 15 20 22 20 20 19 19 18 17 20 19 18 15 14 13 13 15 16 16 16 19 20 20
4 5 6 8 10 11 11 12 16 14 12 14 15 16 15 9 10 10 13 11 11 14 21 21 20 19 17 18 18 16 18 19 18 16 12 13 15 14 15 17 18 20 21 20
4 4 6 8 10 11 12 11 13 12 12 14 14 15 15 13 13 14 12 10 11 18 22 22 22 20 18 16 12 14 16 18 17 15 13 11 14 13 14 15 16 18 18 19
3 3 5 11 13 12 12 10 12 14 13 14 13 15 17 15 14 13 12 11 12 20 23 21 20 18 15 12 11 15 17 17 14 13 12 11 12 14 15 15 16 17 18 18
2 9 12 11 11 7 7 12 13 14 13 12 13 12 14 11 12 12 13 17 19 19 22 19 21 16 11 13 15 16 15 14 16 20 11 10 11 14 16 16 17 17 18 18
12 11 11 10 5 8 10 10 11 11 14 11 12 5 6 8 13 19 18 17 17 17 18 18 17 17 14 11 13 13 13 13 10 9 11 13 13 14 15 16 17 18 19 19
9 8 8 5 10 11 10 9 12 11 14 11 11 10 22 20 18 18 17 17 17 16 14 17 19 15 9 11 11 12 12 12 12 12 13 14 14 15 16 17 18 18 18 18
8 11 8 9 10 9 9 10 12 13 12 12 6 16 21 19 19 18 18 18 19 17 18 18 16 9 13 14 11 10 10 11 12 13 15 16 17 17 17 17 18 18 18 19
12 10 10 12 10 14 14 15 13 12 11 16 19 21 19 19 18 18 18 18 17 17 18 17 18 12 11 10 9 10 12 13 14 15 16 16 17 18 18 18 18 18 19 19
14 13 13 14 14 13 13 15 13 16 17 17 19 19 19 20 18 18 17 17 17 14 14 15 9 7 8 9 10 12 14 15 15 16 16 17 17 18 19 19 19 18 18 19
16 17 17 17 18 18 19 19 20 19 19 17 17 19 19 20 18 18 18 16 13 15 14 11 9 9 10 11 12 13 13 14 16 17 18 18 18 18 18 18 17 17 17 18
18 19 18 17 18 19 20 22 21 18 20 22 19 20 21 16 18 18 17 17 16 13 12 11 10 12 12 13 13 14 16 17 17 17 17 16 16 16 16 17 15 16 17 18
Wind_Direction
355 330 324 317 304 288 296 298 293 292 298 291 294 295 300 306 319 324 324 320 321 325 326 321 319 316 319 329 328 320 322 310 302 296 286 290 280 279 288 268 265 273 279 276
337 340 313 294 293 292 294 298 306 287 294 293 292 304 307 313 319 327 330 334 333 332 327 324 325 326 329 337 332 327 326 313 306 299 289 285 282 277 281 277 273 259 268 271
354 332 311 288 283 279 281 283 289 290 291 294 307 308 315 316 326 336 333 334 335 331 329 329 326 329 335 337 336 338 329 314 304 294 282 282 273 266 269 275 270 268 270 275
344 309 293 278 266 263 278 291 292 291 293 301 319 320 323 337 332 338 334 333 334 332 325 325 322 326 327 332 332 331 330 314 309 297 275 267 263 258 260 265 262 262 276 282
307 305 290 279 267 251 288 291 296 304 331 333 336 322 318 329 342 331 334 333 332 333 326 330 324 326 326 326 328 329 331 320 311 293 275 260 253 253 255 260 265 267 270 277
306 297 283 270 257 262 280 280 288 313 331 326 326 328 330 328 333 337 348 339 339 334 334 336 330 326 320 315 315 315 316 317 311 291 280 261 244 244 250 260 271 281 266 287
285 271 256 256 270 288 277 286 286 315 327 329 332 343 343 339 345 342 337 342 342 349 341 336 333 328 315 306 289 273 294 313 299 274 273 249 231 265 260 257 288 270 338 305
263 245 256 264 280 274 274 264 291 312 311 312 339 341 343 344 351 357 3 2 1 352 348 345 345 349 350 353 244 238 224 189 268 263 254 250 247 263 261 250 270 302 303 312
248 253 264 265 260 267 268 303 285 300 320 325 341 5 6 354 352 2 4 357 1 0 358 359 355 352 358 4 6 31 87 176 192 235 252 237 263 279 271 252 257 306 303 301
247 261 262 256 264 275 281 288 300 306 343 330 347 354 0 3 3 358 5 357 1 8 3 3 3 3 315 5 195 130 173 178 185 203 223 237 279 279 260 247 264 305 321 318
247 263 255 264 273 280 288 294 309 306 332 339 334 346 360 7 9 5 4 9 8 7 6 2 359 357 215 195 204 208 191 205 207 225 245 245 306 289 260 283 311 319 331 338
248 260 268 273 279 281 288 299 315 308 323 333 322 332 352 7 11 15 12 21 16 23 13 337 263 258 242 280 229 256 260 261 268 299 289 335 319 323 321 330 326 330 337 338
244 252 265 270 282 284 299 296 303 320 328 333 7 10 45 47 37 37 26 26 31 29 359 273 254 251 265 264 269 295 301 311 291 301 318 337 336 344 341 342 344 345 2 2
238 250 270 273 287 291 298 305 302 319 333 347 358 355 9 31 47 50 44 30 33 23 289 266 261 256 267 272 290 307 307 308 292 349 348 342 337 332 338 353 0 6 11 11
247 257 270 278 290 301 298 303 309 314 342 348 349 329 354 38 38 34 37 31 32 8 301 266 268 265 279 276 306 316 317 309 296 295 298 337 323 330 337 356 8 29 25 18
240 257 274 285 292 297 307 313 317 303 327 351 350 345 0 16 37 12 18 28 5 355 292 270 273 273 282 283 300 316 326 328 336 323 340 4 7 358 11 6 10 24 36 33
232 258 280 291 290 292 315 327 316 315 339 348 345 347 360 18 13 5 352 358 355 337 285 270 271 275 294 300 304 337 349 347 333 313 333 342 335 358 359 25 36 40 31 24
230 268 289 297 294 297 303 324 345 350 351 351 349 346 354 9 356 355 3 358 337 303 270 263 255 261 275 305 350 6 355 358 355 352 348 354 33 12 34 34 17 11 7 10
217 278 306 291 285 292 307 336 336 332 346 347 348 348 351 10 11 10 12 7 343 271 250 244 242 263 288 325 3 340 341 338 7 351 345 346 351 1 356 353 2 8 4 6
175 270 278 291 292 12 357 324 334 338 343 344 337 351 351 27 30 37 98 156 211 229 228 235 238 273 308 327 315 326 342 334 256 179 283 312 344 348 347 348 354 3 7 8
256 270 285 301 61 314 330 347 350 351 343 354 355 23 30 11 169 190 190 192 201 223 227 232 250 257 284 336 318 302 321 335 321 320 309 321 347 354 359 1 3 1 1 1
253 283 300 304 303 312 337 351 334 346 346 15 23 47 175 205 209 197 201 199 202 220 241 240 231 267 336 309 304 295 303 323 333 328 335 346 356 1 5 8 7 10 10 8
262 277 295 303 305 320 328 324 330 342 5 16 333 219 201 208 207 199 194 187 184 196 214 220 244 278 250 237 263 303 315 334 345 345 354 12 15 15 21 18 17 16 15 13
264 278 279 286 311 289 292 301 335 343 335 229 212 203 202 204 199 202 194 198 199 201 206 215 215 255 263 265 289 340 351 357 3 5 15 24 25 24 26 25 27 27 24 22
268 272 277 271 278 283 291 298 292 239 222 214 210 208 206 202 206 206 208 201 207 231 240 235 275 333 332 323 347 22 39 35 30 33 38 43 43 41 43 44 43 40 36 31
261 254 250 253 256 267 267 246 225 221 217 221 220 212 211 206 210 215 216 226 237 229 257 286 346 358 6 36 40 36 36 45 54 59 64 68 68 62 55 49 44 40 34 26
236 235 242 253 260 257 240 224 220 224 216 209 215 215 207 232 212 219 246 224 248 290 321 324 4 48 55 54 54 63 75 79 76 73 66 63 61 57 48 33 33 28 21 16